EW1541 Weather Reports


Display with metric or nautical units.
time (UTC)temp
F
wind
direction
speed
MPH
gust
MPH
rain 1hr
in
rain 24hr
in
rain mn
in
humidity
%
barometer
mb
20260506190056 0 194 0.0 5.0 0.00 0.00 0.00 1011.7
20260506184550 0 193 0.0 7.0 0.00 0.00 0.00 1011.6
20260506183046 0 194 0.0 6.0 0.00 0.00 0.00 1011.7
20260506181546 0 194 2.0 9.0 0.00 0.00 0.00 1011.6
20260506180042 0 241 1.0 8.0 0.00 0.00 0.00 1011.6
20260506174534 0 240 0.0 5.0 0.00 0.02 0.00 1011.5
20260506173028 0 240 2.0 6.0 0.00 0.02 0.00 1011.5
20260506171536 0 240 3.0 6.0 0.00 0.02 0.00 1011.5
20260506170035 0 248 4.0 8.0 0.00 0.02 0.00 1011.6
20260506164531 0 290 1.0 10.0 0.00 0.02 0.00 1011.7
20260506163025 0 321 3.0 7.0 0.00 0.02 0.00 1011.6
20260506161527 0 320 1.0 8.0 0.00 0.02 0.00 1011.7
20260506160025 0 5 6.0 12.0 0.00 0.02 0.00 1011.7
20260506154524 0 336 8.0 14.0 0.00 0.02 0.00 1011.6
20260506153023 0 350 7.0 15.0 0.00 0.02 0.00 1011.8
20260506151531 0 323 6.0 14.0 0.00 0.02 0.00 1011.8
20260506150023 0 326 8.0 12.0 0.00 0.02 0.00 1011.8
20260506144521 0 338 3.0 10.0 0.00 0.02 0.00 1011.8
20260506143021 0 348 6.0 10.0 0.00 0.02 0.00 1011.8
20260506141520 0 312 3.0 11.0 0.00 0.02 0.00 1011.9
20260506140026 0 171 8.0 11.0 0.00 0.02 0.00 1011.9
20260506134516 0 178 8.0 15.0 0.00 0.02 0.00 1012.0
20260506133025 0 190 3.0 5.0 0.00 0.02 0.00 1012.1
20260506131514 0 190 5.0 9.0 0.00 0.02 0.00 1012.2
20260506130004 0 190 8.0 12.0 0.00 0.02 0.00 1012.3
20260506124558 0 193 7.0 14.0 0.00 0.02 0.00 1012.2
20260506123055 0 150 8.0 10.0 0.00 0.02 0.00 1012.0
20260506121553 0 150 6.0 8.0 0.00 0.02 0.00 1011.8
20260506120049 0 155 4.0 7.0 0.00 0.02 0.00 1011.9
20260506114546 0 157 6.0 12.0 0.00 0.02 0.00 1011.9
20260506113047 0 347 4.0 14.0 0.00 0.02 0.00 1011.9
20260506111534 0 244 3.0 12.0 0.00 0.02 0.00 1011.9
20260506110034 0 355 8.0 15.0 0.00 0.02 0.00 1011.8
20260506104526 0 355 10.0 16.0 0.00 0.06 0.00 1011.8
20260506103025 0 360 6.0 10.0 0.00 0.06 0.00 1011.7
20260506101519 0 267 2.0 11.0 0.00 0.06 0.00 1011.8
20260506100025 0 280 5.0 14.0 0.00 0.06 0.00 1011.7
20260506094508 0 355 7.0 19.0 0.00 0.13 0.00 1011.7
20260506093005 0 258 4.0 18.0 0.00 0.13 0.00 1011.7
20260506091601 0 285 5.0 12.0 0.00 0.13 0.00 1011.7
20260506090055 0 182 5.0 9.0 0.00 0.13 0.00 1011.7
20260506084554 0 182 0.0 5.0 0.00 0.19 0.00 1011.6
20260506083051 0 180 2.0 10.0 0.00 0.19 0.00 1011.6
20260506081542 0 176 1.0 11.0 0.00 0.19 0.00 1011.5
20260506073029 0 177 3.0 5.0 0.00 0.23 0.00 1011.4
20260506071525 0 177 3.0 5.0 0.00 0.23 0.00 1011.4
20260506061507 0 182 6.0 10.0 0.00 0.25 0.00 1011.3
20260506044548 0 282 4.0 7.0 0.00 0.26 0.00 1011.3
20260506043040 0 355 5.0 9.0 0.00 0.26 0.00 1011.2
20260506041536 0 355 6.0 11.0 0.00 0.26 0.00 1011.1
20260506040038 0 296 0.0 11.0 0.00 0.26 0.00 1011.1
20260506034529 0 258 2.0 5.0 0.00 0.26 0.00 1010.9
20260506033022 0 258 0.0 5.0 0.00 0.26 0.00 1010.8
20260506031517 0 258 3.0 6.0 0.00 0.26 0.00 1010.9
20260506030014 0 259 5.0 8.0 0.00 0.26 0.00 1010.8
20260506024509 0 259 1.0 6.0 0.00 0.26 0.00 1011.0
20260506023004 0 259 0.0 8.0 0.00 0.26 0.00 1011.1
20260506021613 0 265 0.0 4.0 0.00 0.26 0.00 1011.1
20260506020055 0 265 2.0 5.0 0.00 0.26 0.00 1011.1
20260506014551 0 265 0.0 4.0 0.00 0.26 0.00 1011.1
20260506013046 0 265 0.0 0.0 0.00 0.26 0.00 1010.9
20260506011542 0 265 0.0 0.0 0.00 0.26 0.00 1010.9
20260506010048 0 265 3.0 5.0 0.00 0.26 0.00 1011.0
20260506004533 0 265 0.0 1.0 0.00 0.27 0.00 1011.0
20260506003029 0 265 2.0 5.0 0.00 0.27 0.00 1010.9
20260506001524 0 265 0.0 0.0 0.00 0.27 0.00 1011.1
20260506000020 0 265 1.0 8.0 0.00 0.27 0.00 1011.2
20260505234531 0 292 0.0 2.0 0.00 0.27 0.00 1011.2
20260505233011 0 292 0.0 3.0 0.00 0.27 0.00 1011.2
20260505231507 0 292 0.0 4.0 0.00 0.27 0.00 1011.2
20260505230002 0 292 2.0 6.0 0.00 0.27 0.00 1011.2
20260505224559 0 292 0.0 2.0 0.00 0.28 0.00 1011.3
20260505223054 0 292 0.0 4.0 0.00 0.28 0.00 1011.2
20260505221550 0 292 0.0 4.0 0.00 0.28 0.00 1011.3
20260505220049 0 292 0.0 5.0 0.00 0.28 0.00 1011.4
20260505214601 0 292 0.0 4.0 0.00 0.28 0.28 1011.3
20260505213037 0 292 0.0 5.0 0.00 0.28 0.28 1011.4
20260505211532 0 292 0.0 4.0 0.00 0.28 0.28 1011.3
20260505210031 0 292 0.0 5.0 0.00 0.28 0.28 1011.2
20260505204531 0 292 0.0 5.0 0.00 0.30 0.28 1011.2
20260505203036 0 292 3.0 8.0 0.00 0.30 0.28 1011.2
20260505201530 0 297 5.0 9.0 0.00 0.30 0.28 1011.1
20260505200022 0 308 5.0 12.0 0.00 0.30 0.28 1011.3
20260505194518 0 311 0.0 2.0 0.00 0.31 0.28 1011.1
20260505193016 0 311 2.0 5.0 0.00 0.31 0.28 1010.9